Printer-friendly version

IAU Minor Planet Center

Minor Planet Center

MPEC 2007-L49 : 2007 LV8

The following Minor Planet Electronic Circular may be linked-to from your own Web pages, but must not otherwise be redistributed electronically.


Read MPEC 2007-L48 Read MPEC 2007-L50


M.P.E.C. 2007-L49                                Issued 2007 June 12, 23:19 UT

     The Minor Planet Electronic Circulars contain information on unusual
         minor planets and routine data on comets.  They are published
   on behalf of Commission 20 of the International Astronomical Union by the
          Minor Planet Center, Smithsonian Astrophysical Observatory,
                          Cambridge, MA 02138, U.S.A.

             Prepared using the Tamkin Foundation Computer Network

                              MPC@CFA.HARVARD.EDU
          URL http://www.cfa.harvard.edu/iau/mpc.html  ISSN 1523-6714

                                   2007 LV8

Observations:
     K07L08V* C2007 06 12.34197 15 57 20.05 +03 12 54.3          17.4 V EL049703
     K07L08V  C2007 06 12.34792 15 57 20.70 +03 13 29.6          17.2 V EL049703
     K07L08V  C2007 06 12.35389 15 57 21.34 +03 14 03.4          17.1 V EL049703
     K07L08V  C2007 06 12.35983 15 57 21.96 +03 14 38.5          17.2 V EL049703
     K07L08V 5C2007 06 12.42314815 57 29.248+03 20 44.06         17.4 R EL049673
     K07L08V 5C2007 06 12.42719915 57 29.725+03 21 07.60                EL049673
     K07L08V %C2007 06 12.42837 15 57 29.45 +03 21 14.6          17.1 R EL049H06
     K07L08V 5C2007 06 12.43298615 57 30.363+03 21 41.04                EL049673
     K07L08V 5C2007 06 12.43715315 57 30.832+03 22 05.39                EL049673
     K07L08V %C2007 06 12.43830 15 57 30.64 +03 22 11.8          17.2 R EL049H06
     K07L08V  C2007 06 12.43831 15 57 33.98 +03 23 19.0          17.5 R EL049474
     K07L08V  C2007 06 12.43970 15 57 34.14 +03 23 27.2          17.5 R EL049474
     K07L08V  C2007 06 12.44109 15 57 34.28 +03 23 35.2          17.5 R EL049474
     K07L08V  C2007 06 12.88694 15 58 29.05 +04 05 24.7          17.2 V EL049A55
     K07L08V  C2007 06 12.89062 15 58 29.42 +04 05 46.6          17.2 V EL049A55
     K07L08V  C2007 06 12.89430 15 58 29.76 +04 06 05.7          17.2 V EL049A55

Observer details:
474 Mount John Observatory, Lake Tekapo.  Observer A. C. Gilmore.  1.0-m f/7.7
    reflector + CCD.
673 Table Mountain Observatory, Wrightwood.  Observer J. Young.  0.61-m f/16
    Cassegrain + CCD.
703 Catalina Sky Survey.  Observer R. A. Kowalski.  Measurers E. C. Beshore,
    A. Boattini, G. J. Garradd, A. R. Gibbs, A. D. Grauer, R. E. Hill,
    R. A. Kowalski, S. M. Larson, R. H. McNaught.  0.68-m Schmidt + CCD.
A55 Osservatorio Astronomico Vallemare di Borbona.  Observer V. S. Casulli.
    0.40-m f/4.5 Newtonian reflector + CCD.
H06 RAS Observatory, Mayhill.  Observers E. Guido, G. Sostero.  0.25-m f/3.4
    reflector + CCD.

Orbital elements:
2007 LV8                                                 Earth MOID = 0.1549 AU
Epoch 2007 Apr. 10.0 TT = JDT 2454200.5                 MPC
M 324.43929              (2000.0)            P               Q
n   0.40731850     Peri.   35.09084     +0.16884227     +0.95668955
a   1.8023811      Node   245.68062     -0.95334124     +0.09742112
e   0.3709501      Incl.   15.08410     -0.25026541     +0.27432504
P   2.42           H   19.8           G   0.15           U   9
Residuals in seconds of arc
070612 703  0.3-  0.2-    070612 H06  0.7-  0.3-    070612 474  0.0   0.0
070612 703  0.0   0.5+    070612 673  0.4+  0.1+    070612 A55  0.5+  0.3+
070612 703  0.0   0.3-    070612 673  0.3+  0.3+    070612 A55  0.1+  1.0+
070612 703  0.3-  0.3+    070612 H06  0.2-  0.6-    070612 A55  0.7-  1.2-
070612 673  0.3+  0.1+    070612 474  0.1-  0.0
070612 673  0.6+  0.1+    070612 474  0.1+  0.1+

Ephemeris:
2007 LV8                 a,e,i = 1.80, 0.37, 15                  q = 1.1338
Date    TT    R. A. (2000) Decl.     Delta      r     Elong.  Phase     V
2007 06 09    15 50.78   -02 15.4    0.166    1.165   152.4    23.8    17.4
2007 06 19    16 11.81   +13 20.3    0.172    1.146   136.4    37.7    17.8
2007 06 29    16 36.31   +25 06.8    0.192    1.136   124.4    47.6    18.3
2007 07 09    17 02.69   +32 32.5    0.220    1.134   117.1    53.0    18.7
2007 07 19    17 29.66   +36 30.0    0.252    1.141   113.5    54.8    19.1
2007 07 29    17 56.67   +37 58.0    0.286    1.155   112.5    54.3    19.4
2007 08 08    18 23.25   +37 37.6    0.319    1.178   113.3    52.2    19.6
2007 08 18    18 49.39   +35 53.9    0.354    1.207   115.3    49.3    19.8
2007 08 28    19 15.26   +33 09.3    0.392    1.242   117.7    46.1    20.0
2007 09 07    19 40.79   +29 43.7    0.435    1.282   120.0    42.9    20.2
2007 09 17    20 06.03   +25 56.6    0.484    1.326   121.7    40.2    20.4
2007 09 27    20 30.98   +22 09.1    0.543    1.372   122.3    38.1    20.7
2007 10 07    20 55.46   +18 37.9    0.613    1.421   121.6    36.8    21.0
2007 10 17    21 19.45   +15 34.7    0.695    1.471   119.7    36.1    21.3
2007 10 27    21 42.91   +13 06.5    0.790    1.522   116.7    35.7    21.7
2007 11 06    22 05.76   +11 14.3    0.896    1.573   112.9    35.5    22.0

Timothy B. Spahr             (C) Copyright 2007 MPC           M.P.E.C. 2007-L49

Read MPEC 2007-L48 Read MPEC 2007-L50


Our Web policy. Index to the CBAT/MPC/ICQ pages.


Valid HTML 4.01!